To NAV CANADA Home Page Login to a new session Search on AWWS site Feedback and Comments Disclaimer Vers la page française équivalente Tips FAQ What's new on the site To the Forecasts and Observations / NOTAM section To "File a Flight Plan" website Publications and other links Update of the User's profile FIC Telephone Numbers My Weather Data Folder Route Weather Data Regional Weather Data Local Weather Data To the Forecasts and Observations / NOTAM section
Request Generated 05/25/2017 at 01:14:10 UTC . Weather information available at that time is displayed.

METAR/TAF

FLIN FLON/MB    (show WxCam)

LWIS CYFO 250100Z AUTO 14010G16KT 19/03 A2940=
LWIS CYFO 250000Z AUTO 15007G15KT 110V180 19/02 A2939=
METAR CYFO 242300Z 14009G15KT 15SM FEW120 OVC250 19/03 A2938 RMK
AC2CS6 LAST OBS/ NEXT 25 1100 UTC SLP956 DENSITY ALT 2300FT=

CYFO - No TAF is issued for this station

Your time UTC time
Weather data provided by Environment Canada and NAV CANADA